Location: Unspecified
(49.2170°N, 0.0000°E)
Time: 14:47:59
(UTC+00:00)

Vanguard 1 - Pass Details

Date: 25 June 2021
Orbit: 651 x 3832 km, 34.2° (Epoch: 23 July)

Event Time Altitude Azimuth Distance (km) Brightness Sun altitude
Rises 21:24:52 0° 250° (WSW) 7,793 14.9 -9.4°
Reaches altitude 10° 21:30:16 10° 246° (WSW) 6,895 14.5 -9.9°
Maximum altitude 21:52:08 51° 180° (S) 4,047 12.8 -11.8°
Drops below altitude 10° 22:08:13 10° 111° (ESE) 5,236 13.3 -13.1°
Sets 22:11:39 0° 106° (ESE) 5,888 13.6 -13.3°
